Tracking 29591 objects as of 19-Sep-2024
HD Live streaming from Space Station
objects crossing your sky now

THOR ABLESTAR DEB *

Track THOR ABLESTAR DEB * now!
10-day predictions


NORAD ID: 19961
Int'l Code: 1961-015MJ
Perigee: 854.1 km
Apogee: 1,102.2 km
Inclination: 65.6 °
Period: 104.5 minutes
Semi major axis: 7349 km
RCS: 0.0125 m2 (small)
Launch date: June 29, 1961
Source: United States (US)
Launch site: AIR FORCE EASTERN TEST RANGE (AFETR)

Note: This is SATELLITE DEBRIS
Your satellite tracking list
Your tracking list is empty




NASA's NSSDC Master Catalog

Two Line Element Set (TLE):
1 19961U 61015MJ  24261.30408626  .00001358  00000-0  12904-2 0  9998
2 19961  65.6448   4.5079 0168749 293.0871  97.4263 13.77997387852604
Source of the keplerian elements: AFSPC